Flag for Canada Weather past 2 weeks in Québec, Quebec, Canada

55 °F

Sprinkles. Fog.

Feels Like: 53 °F
Forecast: 37 / 53 °F
Wind: 10 mph from Southwest

Location: Quebec Weather Station

Current Time: Oct 13, 2015 at 10:23:43 PM

Latest Report: Oct 13, 2015 at 10:00 PM

Visibility: 4 mi

Pressure: 29.36 "Hg

Humidity: 100%

Dew point: 55 °F

Location of QuébecLocation

Historic Weather in Québec — Graph


Québec temperature yesterday

Maximum temperature yesterday: 70 °F (at 3:00 PM)
Minimum temperature yesterday: 48 °F (at 2:00 AM)
Average temperature yesterday: 57 °F

Past Weeks' High & Low Weather Summary

High72 °F (Sep 29, 3:00 PM)100% (Sep 29, 8:00 AM)30.67 "Hg (Sep 29, 8:00 AM)
Low30 °F (Oct 10, 7:00 AM)38% (Oct 3, 3:00 PM)29.36 "Hg (Oct 13, 9:00 PM)
Average48 °F76%30.07 "Hg
* Reported Sep 28 9:00 PM — Oct 13 9:00 PM, Québec, Weather by CustomWeather, © 2015

Note: Actual official high and low records may vary slightly from our data, if they occured in-between our weather recording intervals... More about our weather records


Québec weather history for previous 24 hours

Time TempWeatherWind HumidityBarometerVisibility
9:00 PM
Tue, Oct 13
55 °FMostly cloudy.5 mph94%29.36 "Hg10 mi
8:00 PM55 °FMostly cloudy.No wind100%29.38 "Hg10 mi
7:00 PM55 °FSprinkles. More clouds than sun.6 mph100%29.39 "Hg4 mi
6:00 PM57 °FSprinkles. More clouds than sun.10 mph94%29.38 "Hg4 mi
5:00 PM63 °FMostly cloudy.10 mph68%29.37 "Hg30 mi
4:00 PM64 °FMostly cloudy.2 mph64%29.37 "Hg30 mi
3:00 PM64 °FMostly cloudy.8 mph60%29.37 "Hg30 mi
2:00 PM68 °FMore clouds than sun.7 mph53%29.38 "Hg30 mi
1:00 PM64 °FMore clouds than sun.9 mph60%29.41 "Hg30 mi
12:00 PM61 °FCloudy.7 mph72%29.45 "Hg30 mi
11:00 AM59 °FBroken clouds.6 mph77%29.47 "Hg30 mi
10:00 AM57 °FBroken clouds.8 mph82%29.49 "Hg30 mi
9:00 AM55 °FPartly sunny.9 mph88%29.51 "Hg30 mi
8:00 AM50 °FPartly sunny.6 mph94%29.53 "Hg20 mi
7:00 AM48 °FPartly cloudy.5 mph94%29.54 "Hg25 mi
6:00 AM50 °FPassing clouds.6 mph94%29.55 "Hg15 mi
5:00 AM50 °FPassing clouds.6 mph94%29.56 "Hg15 mi
4:00 AM50 °FPassing clouds.5 mph94%29.57 "Hg15 mi
3:00 AM52 °FPartly cloudy.7 mph88%29.58 "Hg15 mi
2:00 AM52 °FMostly cloudy.6 mph94%29.60 "Hg15 mi
1:00 AM54 °FPassing clouds.3 mph88%29.61 "Hg15 mi
12:00 AM52 °FPassing clouds.5 mph94%29.63 "Hg15 mi
11:00 PM
Mon, Oct 12
54 °FPassing clouds.5 mph88%29.64 "Hg15 mi
10:00 PM54 °FPassing clouds.5 mph88%29.64 "Hg15 mi
Weather by CustomWeather, © 2015

See weather overviewHow to use our weather pages